Location: Pistoia
(43.9170°N, 10.9000°E)
Time: 13:20:42
(UTC+01:00)

ISS - Visible Passes

Search period start: 24 January 2019 00:00
Search period end: 03 February 2019 00:00
Orbit: 404 x 410 km, 51.6° (Epoch: 24 January)

Date Brightness Start Highest point End Pass type
(mag) Time Alt. Az. Time Alt. Az. Time Alt. Az.
24 Jan -2.2 17:46:30 10° S 17:49:08 22° SE 17:51:46 10° E visible
24 Jan -2.7 19:22:13 10° WSW 19:24:47 44° WNW 19:24:47 44° WNW visible
25 Jan -3.9 18:30:46 10° WSW 18:34:03 89° WNW 18:35:41 28° ENE visible
25 Jan -0.4 20:08:06 10° WNW 20:08:24 12° WNW 20:08:24 12° WNW visible
26 Jan -2.4 19:16:23 10° W 19:19:13 32° NNW 19:19:13 32° NNW visible
27 Jan -3.0 18:24:41 10° W 18:27:52 44° NNW 18:30:00 18° NE visible
27 Jan -0.5 20:02:22 10° WNW 20:02:43 12° NW 20:02:43 12° NW visible
28 Jan -2.1 19:10:37 10° WNW 19:13:22 23° N 19:13:26 23° N visible
29 Jan -2.3 18:18:50 10° WNW 18:21:45 28° NNW 18:24:07 14° NE visible
29 Jan -0.7 19:56:24 10° NW 19:56:50 12° NW 19:56:50 12° NW visible
30 Jan -2.0 19:04:45 10° NW 19:07:20 21° N 19:07:30 21° N visible
31 Jan -2.0 18:13:00 10° WNW 18:15:40 22° N 18:18:09 11° NE visible
31 Jan -1.0 19:50:09 10° NW 19:50:52 14° NW 19:50:52 14° NW visible
01 Feb -2.1 18:58:38 10° NW 19:01:17 22° N 19:01:32 22° NNE visible
02 Feb -2.0 18:07:01 10° NW 18:09:36 21° N 18:12:11 10° NE visible
02 Feb -1.4 19:43:41 10° NW 19:44:55 19° NW 19:44:55 19° NW visible
